Bangor, ME

2:39 PM EST on December 07, 2019 (GMT -0500)
Bangor International

Weather History for KBGR - October, 2019

Change the Weather History Date:

Thursday, October 24, 2019

  Actual Average Record
Temperature  
Mean Temperature 50 °F 44 °F  
Max Temperature 63 °F 54 °F 76 °F (1963)
Min Temperature 37 °F 34 °F 19 °F (1969)
Degree Days  
Heating Degree Days 15 21  
Month to date heating degree days 362 400  
Since 1 July heating degree days 576 672  
Cooling Degree Days 0 0  
Month to date cooling degree days 0 0  
Year to date cooling degree days 336 317  
Moisture  
Dew Point 39 °F    
Average Humidity 66    
Maximum Humidity 100    
Minimum Humidity 36    
Precipitation  
Precipitation 0.00 in 0.14 in 3.16 in (1937)
Month to date precipitation 4.47 3.26  
Year to date precipitation 43.49 33.34  
Snow  
Snow 0.00 in 0.00 in T in (2018)
Month to date snowfall 0.0 0.1  
Since 1 July snowfall 0.0 0.1  
Since 1 September snowfall 0.0 0.1  
Snow Depth 0.00 in    
Sea Level Pressure  
Sea Level Pressure 30.13 in    
Wind  
Wind Speed 5 mph ()    
Max Wind Speed 18 mph    
Max Gust Speed 24 mph    
Visibility 10.0 miles    
Events      
T = Trace of Precipitation, MM = Missing Value Source: Averaged Metar Reports

Daily Weather History Graph

Daily Weather History Graph

Search for Another Location

Airport or City:

Astronomy

Oct. 24, 2019 Rise Set
Actual Time 7:02 AM EDT 5:36 PM EDT
Civil Twilight 6:32 AM EDT 6:06 PM EDT
Nautical Twilight 5:58 AM EDT 6:40 PM EDT
Astronomical Twilight 5:24 AM EDT 7:13 PM EDT
Moon 2:12 AM EDT (10/24) 4:15 PM EDT (10/24)
Length of Visible Light 11h 33m
Length of Day
10h 33m
Waning Crescent, 17% of the Moon is Illuminated
Oct 24
Waning Crescent
Oct 27
New
Nov 4
First Quarter
Nov 12
Full
Nov 19
Last Quarter

Hourly Weather History & Observations

Time (EDT) Temp. Windchill Dew Point Humidity Pressure Visibility Wind Dir Wind Speed Gust Speed Precip Events Conditions
12:53 AM 42.1 °F - 39.9 °F 92% 30.00 in 10.0 mi Calm Calm - N/A   Clear
1:53 AM 45.0 °F 42.6 °F 39.0 °F 80% 30.02 in 10.0 mi SW 4.6 mph - N/A   Clear
2:53 AM 43.0 °F 41.3 °F 37.0 °F 80% 30.06 in 10.0 mi SW 3.5 mph - N/A   Clear
3:53 AM 39.9 °F - 39.0 °F 97% 30.06 in 10.0 mi Calm Calm - N/A   Clear
4:53 AM 37.0 °F - 37.0 °F 100% 30.09 in 10.0 mi Calm Calm - N/A   Clear
5:53 AM 39.9 °F - 37.0 °F 89% 30.12 in 10.0 mi Calm Calm - N/A   Clear
6:53 AM 39.9 °F 36.7 °F 36.0 °F 86% 30.14 in 10.0 mi South 4.6 mph - N/A   Clear
7:53 AM 43.0 °F 38.8 °F 36.0 °F 76% 30.17 in 10.0 mi SSW 6.9 mph - N/A   Clear
8:53 AM 48.0 °F - 39.0 °F 71% 30.17 in 10.0 mi SSW 8.1 mph - N/A   Clear
9:53 AM 54.0 °F - 39.9 °F 59% 30.17 in 10.0 mi SSW 9.2 mph - N/A   Partly Cloudy
10:53 AM 57.9 °F - 37.9 °F 47% 30.17 in 10.0 mi SSW 12.7 mph 17.3 mph N/A   Partly Cloudy
11:53 AM 60.1 °F - 36.0 °F 41% 30.17 in 10.0 mi SW 10.4 mph 19.6 mph N/A   Partly Cloudy
12:53 PM 61.0 °F - 34.0 °F 36% 30.14 in 10.0 mi SW 13.8 mph 20.7 mph N/A   Partly Cloudy
1:53 PM 62.1 °F - 36.0 °F 38% 30.13 in 10.0 mi SSW 13.8 mph 23.0 mph N/A   Clear
2:53 PM 63.0 °F - 36.0 °F 37% 30.12 in 10.0 mi SSW 11.5 mph 20.7 mph N/A   Partly Cloudy
3:53 PM 61.0 °F - 37.9 °F 42% 30.12 in 10.0 mi South 15.0 mph - N/A   Scattered Clouds
4:53 PM 57.9 °F - 42.1 °F 56% 30.11 in 10.0 mi South 10.4 mph - N/A   Mostly Cloudy
5:53 PM 55.9 °F - 41.0 °F 57% 30.12 in 10.0 mi South 10.4 mph - N/A   Mostly Cloudy
6:53 PM 54.0 °F - 41.0 °F 62% 30.13 in 10.0 mi SSW 9.2 mph - N/A   Mostly Cloudy
7:53 PM 54.0 °F - 41.0 °F 62% 30.15 in 10.0 mi South 10.4 mph - N/A   Mostly Cloudy
8:53 PM 54.0 °F - 41.0 °F 62% 30.17 in 10.0 mi South 5.8 mph - N/A   Overcast
9:53 PM 53.1 °F - 41.0 °F 64% 30.16 in 10.0 mi South 5.8 mph - N/A   Overcast
10:53 PM 50.0 °F - 41.0 °F 71% 30.16 in 10.0 mi South 5.8 mph - N/A   Mostly Cloudy
11:53 PM 52.0 °F - 42.1 °F 69% 30.18 in 10.0 mi SSW 5.8 mph - N/A   Mostly Cloudy